EWG1803 EDFH-EHRD

Flight info

Callsign EWG1803
Flight time N/A
Altitude 24000
Route RUDOT1L RUDOT Y180 BITBU Y181 DEMUL M624 BUB Y28 HELEN
Aircraft A319/M-SDE3FGHIRWY/LB1

Departure

Time 2026-05-04 15:07
Airport Frankfurt-Hahn Airport (EDFH)

Arrival

Time N/A
Airport Rotterdam The Hague Airport (EHRD)
Time Latitude Longitude Altitude Speed Heading
2026-05-04 14:21 49.94774 7.26932 1619 ft 0 kts 212°
2026-05-04 14:54 49.94781 7.26938 1616 ft 4 kts 216°
2026-05-04 14:55 49.94798 7.26967 1622 ft 4 kts 251°
2026-05-04 14:55 49.94798 7.26999 1621 ft 2 kts 304°
2026-05-04 14:55 49.94798 7.27000 1621 ft 0 kts 305°
2026-05-04 15:01 49.94812 7.26967 1619 ft 12 kts 304°
2026-05-04 15:01 49.94866 7.26873 1618 ft 9 kts 358°
2026-05-04 15:01 49.94957 7.26956 1618 ft 23 kts 32°
2026-05-04 15:01 49.95135 7.27129 1609 ft 29 kts 32°
2026-05-04 15:02 49.95311 7.27303 1603 ft 30 kts 32°
2026-05-04 15:02 49.95454 7.27445 1608 ft 21 kts 32°
2026-05-04 15:02 49.95558 7.27540 1607 ft 14 kts 19°
2026-05-04 15:02 49.95591 7.27537 1604 ft 7 kts 338°
2026-05-04 15:03 49.95669 7.27462 1605 ft 19 kts 327°
2026-05-04 15:03 49.95727 7.27400 1598 ft 0 kts 316°
2026-05-04 15:05 49.95741 7.27370 1601 ft 7 kts 303°
2026-05-04 15:05 49.95755 7.27264 1598 ft 13 kts 243°
2026-05-04 15:06 49.95725 7.27232 1597 ft 0 kts 212°
2026-05-04 15:07 49.95299 7.26811 1611 ft 111 kts 212°
2026-05-04 15:07 49.94431 7.25954 1740 ft 170 kts 215°
2026-05-04 15:07 49.93417 7.24924 2474 ft 182 kts 214°
2026-05-04 15:07 49.92325 7.23792 3074 ft 194 kts 213°
2026-05-04 15:08 49.91166 7.22605 3635 ft 207 kts 213°
2026-05-04 15:08 49.89912 7.21332 4234 ft 223 kts 213°
2026-05-04 15:08 49.89043 7.20453 4625 ft 227 kts 212°
2026-05-04 15:08 49.87723 7.19087 4810 ft 228 kts 213°
2026-05-04 15:09 49.86433 7.17677 4845 ft 226 kts 218°
2026-05-04 15:09 49.85401 7.15850 4851 ft 228 kts 239°
2026-05-04 15:09 49.84997 7.13457 4850 ft 237 kts 267°
2026-05-04 15:10 49.86706 7.09065 4852 ft 257 kts 320°
2026-05-04 15:10 49.88303 7.07749 4854 ft 271 kts 337°
2026-05-04 15:10 49.92101 7.06226 4845 ft 285 kts 343°
2026-05-04 15:11 49.94029 7.05464 4875 ft 284 kts 340°
2026-05-04 15:11 49.95777 7.04209 4868 ft 279 kts 322°
2026-05-04 15:11 49.97236 7.02228 4864 ft 272 kts 306°
2026-05-04 15:11 49.98257 6.99799 4866 ft 267 kts 290°
2026-05-04 15:12 49.98798 6.97057 5425 ft 264 kts 274°
2026-05-04 15:12 49.99020 6.94217 6440 ft 266 kts 270°
2026-05-04 15:12 49.99234 6.91378 7350 ft 270 kts 270°
2026-05-04 15:12 49.99263 6.88475 8262 ft 270 kts 263°
2026-05-04 15:13 49.99183 6.85535 9187 ft 273 kts 263°
2026-05-04 15:13 49.99095 6.82569 10084 ft 278 kts 263°
2026-05-04 15:13 49.98996 6.79441 10407 ft 301 kts 263°
2026-05-04 15:13 49.98891 6.76096 10904 ft 316 kts 264°
2026-05-04 15:14 49.98787 6.72641 11627 ft 322 kts 264°
2026-05-04 15:14 49.98685 6.69131 12379 ft 327 kts 264°
2026-05-04 15:14 49.98582 6.65571 13153 ft 331 kts 264°
2026-05-04 15:14 49.98472 6.61964 13918 ft 336 kts 264°
2026-05-04 15:15 49.98359 6.58320 14614 ft 340 kts 264°
2026-05-04 15:15 49.98244 6.54641 15313 ft 343 kts 264°
2026-05-04 15:15 49.98128 6.50922 16012 ft 346 kts 264°
2026-05-04 15:16 49.97898 6.43459 17321 ft 351 kts 264°
2026-05-04 15:16 49.97777 6.39662 17970 ft 353 kts 264°
2026-05-04 15:16 49.97519 6.31961 19117 ft 360 kts 264°
2026-05-04 15:17 49.97386 6.28077 19694 ft 363 kts 264°
2026-05-04 15:17 49.97112 6.20155 20883 ft 369 kts 264°
2026-05-04 15:17 49.96974 6.16155 21469 ft 372 kts 264°
2026-05-04 15:18 49.96832 6.12124 22033 ft 375 kts 264°
2026-05-04 15:18 49.96684 6.08069 22572 ft 377 kts 263°
2026-05-04 15:18 49.96605 6.04028 23086 ft 383 kts 270°
2026-05-04 15:19 49.98234 5.96040 23906 ft 400 kts 297°
2026-05-04 15:19 49.99903 5.92554 23995 ft 403 kts 309°
2026-05-04 15:19 50.03944 5.86506 24002 ft 402 kts 312°
2026-05-04 15:20 50.05960 5.83478 23998 ft 402 kts 312°
2026-05-04 15:20 50.07968 5.80445 24001 ft 402 kts 312°
2026-05-04 15:20 50.09980 5.77403 23999 ft 402 kts 312°
2026-05-04 15:20 50.11989 5.74368 24004 ft 402 kts 312°
2026-05-04 15:21 50.13972 5.71377 23996 ft 402 kts 312°
2026-05-04 15:21 50.15988 5.68342 23996 ft 402 kts 313°
2026-05-04 15:21 50.20014 5.62281 23999 ft 402 kts 312°
2026-05-04 15:22 50.22028 5.59242 23996 ft 402 kts 312°
2026-05-04 15:22 50.24037 5.56202 23998 ft 403 kts 312°
2026-05-04 15:22 50.28058 5.50099 24009 ft 403 kts 312°
2026-05-04 15:23 50.30064 5.47048 24004 ft 402 kts 312°
2026-05-04 15:23 50.32070 5.43989 23838 ft 401 kts 312°
2026-05-04 15:23 50.34066 5.40941 23491 ft 400 kts 312°
2026-05-04 15:23 50.36043 5.37924 23342 ft 392 kts 312°
2026-05-04 15:24 50.39853 5.32108 22929 ft 377 kts 312°
2026-05-04 15:24 50.43525 5.26492 22395 ft 361 kts 312°
2026-05-04 15:25 50.45314 5.23744 21887 ft 361 kts 312°
2026-05-04 15:25 50.47093 5.21006 21326 ft 362 kts 312°
2026-05-04 15:25 50.48893 5.18234 20762 ft 363 kts 313°
2026-05-04 15:26 50.52494 5.12693 19667 ft 362 kts 313°
2026-05-04 15:26 50.54288 5.09928 19138 ft 359 kts 314°
2026-05-04 15:26 50.57771 5.04544 18130 ft 347 kts 314°
2026-05-04 15:27 50.59462 5.01923 17956 ft 336 kts 314°
2026-05-04 15:27 50.62782 4.96770 17984 ft 334 kts 314°
2026-05-04 15:28 50.66091 4.91628 17980 ft 334 kts 314°
2026-05-04 15:28 50.67742 4.89059 17700 ft 333 kts 314°
2026-05-04 15:28 50.71020 4.83957 17174 ft 330 kts 314°
2026-05-04 15:29 50.72649 4.81411 16908 ft 328 kts 314°
2026-05-04 15:30 50.79073 4.71365 15879 ft 321 kts 315°
2026-05-04 15:30 50.83761 4.64012 14996 ft 313 kts 315°
2026-05-04 15:31 50.86826 4.59193 14023 ft 308 kts 314°
2026-05-04 15:31 50.88337 4.56811 13519 ft 306 kts 314°
2026-05-04 15:32 50.92112 4.48956 11977 ft 298 kts 301°
2026-05-04 15:32 50.94265 4.43385 10985 ft 293 kts 301°
2026-05-04 15:33 50.96384 4.37911 10038 ft 289 kts 301°
2026-05-04 15:34 50.99500 4.29823 8570 ft 282 kts 301°
2026-05-04 15:34 51.00515 4.27178 8099 ft 280 kts 301°
2026-05-04 15:34 51.02532 4.21921 7978 ft 279 kts 301°
2026-05-04 15:35 51.04553 4.16638 7976 ft 279 kts 301°
2026-05-04 15:35 51.05559 4.14000 7979 ft 279 kts 301°
2026-05-04 15:35 51.06551 4.11394 7986 ft 279 kts 301°
2026-05-04 15:36 51.09105 4.06875 7978 ft 279 kts 333°
2026-05-04 15:36 51.10964 4.06073 7975 ft 279 kts 357°
2026-05-04 15:36 51.12881 4.06403 7980 ft 280 kts 10°
2026-05-04 15:37 51.14799 4.06954 7979 ft 280 kts 10°
2026-05-04 15:37 51.16723 4.07512 7978 ft 280 kts 10°
2026-05-04 15:37 51.18639 4.08070 7977 ft 280 kts 10°
2026-05-04 15:37 51.20559 4.08630 7978 ft 280 kts 10°
2026-05-04 15:38 51.22477 4.09188 7975 ft 280 kts 10°
2026-05-04 15:38 51.24394 4.09743 7976 ft 280 kts 10°
2026-05-04 15:38 51.26315 4.10298 7984 ft 280 kts 10°
2026-05-04 15:38 51.28234 4.10855 7973 ft 281 kts 10°
2026-05-04 15:39 51.30163 4.11416 7975 ft 282 kts 10°
2026-05-04 15:39 51.32038 4.11964 7974 ft 282 kts 10°
2026-05-04 15:39 51.35951 4.13107 7974 ft 282 kts 10°
2026-05-04 15:40 51.37883 4.13673 7973 ft 282 kts 10°
2026-05-04 15:40 51.39786 4.14233 7973 ft 282 kts 10°
2026-05-04 15:40 51.41714 4.14799 7972 ft 282 kts 10°
2026-05-04 15:40 51.43645 4.15364 7973 ft 282 kts 10°
2026-05-04 15:41 51.45578 4.15930 7974 ft 282 kts 10°
2026-05-04 15:41 51.47503 4.16493 7983 ft 282 kts 10°
2026-05-04 15:41 51.49434 4.17060 7978 ft 282 kts 10°
2026-05-04 15:41 51.51358 4.17625 7973 ft 282 kts 10°
2026-05-04 15:42 51.53298 4.18196 7976 ft 282 kts 10°
2026-05-04 15:42 51.55235 4.18764 7975 ft 283 kts 10°
2026-05-04 15:42 51.57165 4.19330 7802 ft 281 kts 10°
2026-05-04 15:42 51.59085 4.19897 7538 ft 280 kts 10°
2026-05-04 15:43 51.60999 4.20466 7278 ft 279 kts 10°
2026-05-04 15:43 51.62880 4.21022 7031 ft 278 kts 10°
2026-05-04 15:43 51.64774 4.21580 6785 ft 276 kts 10°
2026-05-04 15:43 51.66673 4.22140 6439 ft 280 kts 10°
2026-05-04 15:44 51.68605 4.22714 6007 ft 284 kts 10°
2026-05-04 15:44 51.70562 4.23297 5573 ft 288 kts 10°
2026-05-04 15:44 51.72548 4.23886 5142 ft 291 kts 10°
2026-05-04 15:44 51.74548 4.24479 4720 ft 293 kts 10°
2026-05-04 15:45 51.76581 4.24838 4282 ft 295 kts
2026-05-04 15:45 51.78621 4.24915 3849 ft 296 kts 360°
2026-05-04 15:45 51.80681 4.24876 3420 ft 296 kts 359°
2026-05-04 15:45 51.82729 4.24817 2992 ft 296 kts 359°
2026-05-04 15:46 51.84790 4.24774 2559 ft 296 kts 359°
2026-05-04 15:46 51.86816 4.24380 2115 ft 291 kts 339°
2026-05-04 15:46 51.88344 4.22476 1960 ft 271 kts 304°
2026-05-04 15:46 51.88846 4.19704 2000 ft 249 kts 272°
2026-05-04 15:47 51.88719 4.17121 2039 ft 202 kts 271°
2026-05-04 15:47 51.89063 4.15064 2306 ft 188 kts 290°
2026-05-04 15:47 51.89540 4.13132 2220 ft 182 kts 297°
2026-05-04 15:47 51.90239 4.11428 2125 ft 181 kts 312°
2026-05-04 15:48 51.91151 4.10053 2015 ft 177 kts 325°
2026-05-04 15:48 51.92201 4.09012 2005 ft 177 kts 327°
2026-05-04 15:48 51.92455 4.05355 1916 ft 199 kts 224°
2026-05-04 15:49 51.91160 4.04689 1764 ft 205 kts 168°